Theta_e
356 357 356 355 355 354 354 353 352 352 352 352 353 353 353 353 353 353 353 352 352 352 353 352 352 352 352 351 351 352 352 352 353 354 355 353 353 354 356 356 356 356 355 355 356 356 356 355 356 356 357 357 358 357 355 356 356 354 351 350 350 347 344 342 339 339 342 340 339 341 342 343 343 342 342 341 341 341 345 349 350 350 350 350 350
356 356 355 356 355 356 355 354 354 353 353 353 353 353 353 354 353 354 353 353 352 352 353 352 352 352 352 352 352 352 353 353 354 355 354 352 354 357 356 356 357 356 356 356 357 357 357 357 356 357 357 357 357 356 356 356 355 353 351 350 350 347 345 342 340 340 340 340 340 342 342 342 342 341 341 341 341 342 344 347 347 345 345 346 348
356 354 356 357 356 356 356 356 356 354 354 354 354 354 354 354 354 355 354 354 353 353 353 353 353 354 354 354 354 354 355 355 355 355 354 351 354 358 356 355 358 357 357 357 357 358 358 357 357 357 357 357 357 356 356 355 355 354 351 350 349 347 345 342 341 342 341 340 343 344 342 341 342 342 341 340 340 342 343 344 342 341 343 343 343
357 355 355 357 358 358 357 357 357 356 356 355 355 355 355 355 355 355 355 355 355 355 354 355 355 355 356 356 356 356 355 356 356 355 355 353 354 357 356 356 358 357 358 358 358 358 359 358 358 357 357 357 357 357 356 355 355 354 352 349 347 345 344 343 343 344 343 342 343 343 341 340 342 341 341 340 340 341 342 341 340 340 341 342 341
358 356 355 356 358 359 358 359 357 356 357 356 356 356 356 356 356 356 357 356 356 356 356 356 357 356 356 356 355 356 355 356 356 356 356 355 353 355 356 357 358 358 358 359 358 359 360 359 358 358 358 358 358 357 356 355 354 353 351 349 348 346 344 343 343 343 344 344 344 343 342 341 340 339 340 341 340 340 341 340 340 340 340 341 340
358 358 356 357 358 359 360 359 358 358 358 358 357 357 357 357 357 357 358 358 357 358 358 357 357 357 356 356 355 355 356 356 357 356 353 353 352 353 355 357 359 358 358 359 359 359 360 360 358 358 358 358 358 357 356 355 355 353 350 348 348 347 343 341 343 343 344 345 344 344 344 343 341 340 341 342 342 340 340 340 340 339 340 341 340
358 358 356 357 359 359 360 360 359 359 359 359 359 359 359 359 359 359 358 358 358 359 359 358 358 358 357 357 355 355 357 357 358 355 351 352 352 352 354 357 360 359 357 359 359 359 360 360 359 358 358 358 358 358 357 356 355 353 350 348 348 348 345 341 343 344 344 343 342 342 343 342 342 342 341 342 343 342 341 340 339 339 339 340 340
358 358 357 357 359 360 360 361 360 359 359 360 360 360 360 360 360 360 359 359 360 360 359 359 359 359 358 357 356 357 357 358 358 356 353 354 354 353 355 358 360 360 357 358 360 359 360 360 359 359 359 359 359 358 358 356 355 354 351 349 349 349 345 341 343 345 343 342 341 341 342 342 343 342 342 342 342 342 341 340 339 338 338 338 338
358 358 357 357 359 360 360 361 361 359 359 359 360 360 361 362 362 361 361 360 361 360 359 359 359 359 359 357 358 358 357 357 358 358 357 358 358 357 357 359 361 360 358 359 360 360 360 360 359 360 359 359 359 358 358 357 356 355 353 351 349 349 346 342 343 346 343 342 342 341 341 342 342 341 342 342 342 342 341 340 340 338 338 337 337
357 357 357 358 360 360 360 361 361 359 359 360 360 361 361 362 363 362 362 361 361 361 360 360 360 360 359 358 359 359 358 357 359 360 360 360 361 360 360 361 360 360 360 359 360 360 360 360 360 359 359 359 359 359 358 357 357 356 354 352 350 350 347 343 343 345 345 344 344 343 341 341 341 342 342 341 342 342 341 339 338 339 339 338 337
357 356 357 359 361 361 360 361 361 360 360 360 360 361 361 363 363 363 363 362 362 362 361 361 361 361 360 360 360 359 359 359 360 361 362 362 362 360 360 361 360 360 359 359 360 360 360 360 359 359 359 359 359 359 358 357 357 356 355 353 351 350 348 345 343 345 346 346 345 344 342 341 341 342 341 341 342 342 341 339 337 337 338 338 338
356 356 357 358 359 361 361 361 362 361 360 360 360 361 362 363 363 364 364 363 362 362 363 362 362 361 361 361 360 359 359 360 360 362 362 362 361 359 360 361 361 361 360 359 360 360 360 361 360 359 359 359 359 359 359 358 357 355 355 354 352 350 349 346 344 345 346 346 346 344 342 341 340 340 340 341 342 341 341 340 338 338 338 338 338
356 357 357 358 358 359 361 362 362 363 361 361 360 361 362 363 364 364 364 364 363 362 363 362 362 361 361 361 361 360 360 360 361 361 362 362 361 360 360 361 362 362 361 360 359 360 361 362 361 361 361 360 359 359 359 359 358 356 354 354 353 351 350 348 345 345 346 346 345 344 343 342 341 339 338 339 340 341 342 342 340 339 339 338 338
356 357 356 358 359 359 361 363 363 363 362 362 361 361 362 363 364 365 364 364 363 363 362 362 362 361 361 361 361 361 361 361 361 360 361 361 360 360 359 359 361 361 361 361 360 359 360 362 362 361 361 361 360 359 360 360 359 357 356 355 353 351 350 349 346 344 345 346 345 344 344 343 342 340 338 337 337 339 340 340 340 341 339 337 338
355 357 356 358 359 360 362 362 363 363 363 362 361 361 363 363 364 365 365 365 364 363 363 362 362 362 361 361 361 361 361 362 361 360 360 361 360 360 359 358 358 360 360 361 361 360 360 363 363 361 361 361 361 360 359 360 359 358 357 356 354 352 351 350 347 345 345 345 345 345 345 343 342 341 339 337 336 337 337 337 339 341 340 337 337
354 356 357 358 359 362 362 361 362 363 362 362 361 361 362 362 364 365 365 365 364 364 363 362 362 362 362 362 361 362 362 361 362 361 360 361 361 360 360 359 357 358 360 362 362 361 361 364 364 362 362 362 362 361 360 360 360 358 358 357 355 353 351 351 349 346 344 345 345 345 344 343 343 342 340 339 338 337 336 337 338 338 339 339 339
354 356 357 357 359 360 361 361 361 362 362 362 361 362 362 362 364 365 365 365 364 364 363 361 363 363 363 363 362 362 362 361 361 362 361 360 361 361 360 360 359 358 360 362 363 362 361 362 363 363 362 363 362 361 361 360 359 358 358 358 357 353 352 352 350 347 344 345 345 345 345 343 343 343 341 340 340 339 338 338 338 337 338 340 341
354 356 358 357 358 360 361 360 360 361 362 362 362 362 362 362 363 364 364 364 364 364 363 362 363 364 363 364 363 363 363 362 361 361 361 361 362 361 360 360 360 359 360 361 363 363 362 362 363 363 363 363 363 361 361 360 360 359 358 358 358 355 353 352 351 349 345 343 344 345 345 343 343 344 343 341 341 341 340 339 339 338 339 340 341
353 355 357 357 356 358 360 360 359 360 361 361 362 362 361 362 363 363 364 364 364 364 363 363 364 364 364 364 364 364 363 363 362 362 362 361 362 362 361 360 360 360 361 362 363 364 364 363 363 362 362 363 363 362 361 360 359 360 359 359 358 356 354 353 352 351 347 344 344 345 345 344 343 344 343 341 342 341 340 339 339 339 340 340 340
353 353 355 356 355 357 359 359 358 359 361 360 361 360 360 361 362 363 363 363 364 364 364 363 363 363 364 364 364 364 364 363 363 362 362 362 362 362 361 361 361 360 361 362 362 362 363 364 363 362 361 362 363 362 362 361 361 360 360 359 357 356 356 355 353 352 350 346 345 345 346 344 343 343 343 342 342 342 340 340 340 341 341 340 340
353 353 353 354 354 356 357 359 357 358 359 359 359 360 359 360 362 361 362 363 363 364 364 364 364 363 364 364 364 365 364 363 364 363 363 363 362 362 362 362 361 361 361 362 363 362 362 363 363 362 362 362 363 364 363 363 362 361 360 360 359 357 356 356 355 354 352 349 347 346 346 345 344 344 343 342 342 342 341 340 341 342 341 341 341
353 351 352 353 354 354 356 358 357 356 358 358 358 358 358 359 360 360 361 361 362 363 364 364 364 364 364 364 364 365 364 364 364 364 363 363 363 363 362 362 362 362 362 362 363 363 362 363 362 363 363 363 364 365 364 363 363 361 361 361 360 358 357 356 355 355 353 351 349 347 346 346 345 344 344 343 342 342 341 341 342 342 341 341 342
352 349 349 351 353 354 356 357 357 356 356 357 357 357 358 358 359 358 359 360 360 362 364 364 364 364 364 364 365 365 365 365 364 364 364 363 364 364 363 363 362 362 363 362 362 362 363 363 363 364 364 364 365 365 364 363 363 362 361 361 360 359 357 357 356 356 355 353 351 349 347 346 345 345 345 344 343 342 342 342 342 342 342 342 343
351 349 349 349 350 355 357 357 359 358 356 357 356 356 357 357 357 357 357 358 359 360 362 364 364 364 364 364 365 364 364 364 364 364 364 363 363 363 363 363 362 361 363 363 363 363 363 364 364 364 365 365 365 366 365 364 362 362 361 361 361 360 359 358 357 357 357 355 353 351 348 346 346 346 345 344 344 343 343 342 342 343 343 342 343
351 349 349 348 350 356 359 360 361 359 357 357 356 356 356 356 356 356 357 357 358 359 360 363 364 363 364 365 365 364 364 364 364 363 363 362 362 363 363 364 363 362 362 363 363 363 363 365 365 364 365 365 365 366 365 364 363 362 361 361 361 361 360 360 359 358 357 356 354 353 350 348 347 347 346 345 345 344 344 343 343 343 344 343 343
354 351 351 351 353 357 360 362 362 359 358 357 357 355 355 355 355 356 357 356 358 358 360 362 363 363 363 364 364 364 364 363 363 362 362 362 361 361 362 363 363 362 362 362 363 363 363 364 365 365 364 365 365 365 365 364 363 363 362 361 361 361 360 360 359 358 358 357 356 354 352 350 348 348 347 345 345 346 345 345 344 344 344 344 343
355 354 354 355 357 357 359 362 362 359 357 357 356 355 354 355 355 355 356 357 357 359 359 361 363 362 363 364 364 364 363 363 362 362 362 361 361 361 361 362 362 363 362 361 361 363 363 364 364 365 364 365 365 365 365 364 363 363 362 361 361 361 360 360 359 359 358 357 356 355 354 352 350 350 349 346 346 347 347 346 345 344 344 345 344
355 356 358 359 359 359 360 362 361 359 358 357 356 355 354 355 356 355 355 356 357 358 358 360 361 362 363 364 365 364 364 363 362 363 362 361 361 361 361 361 361 362 362 361 360 362 363 364 364 364 364 364 365 365 365 365 363 363 362 362 361 360 360 360 359 358 358 357 356 355 354 353 352 351 350 348 346 347 348 347 346 345 345 345 345
353 357 361 362 362 363 361 360 360 357 357 357 355 355 355 355 355 355 355 355 356 358 359 359 361 363 363 364 365 365 364 364 363 363 363 363 362 362 362 362 362 362 362 361 360 360 363 364 364 364 364 364 364 365 365 364 363 363 362 362 361 360 360 360 359 358 357 357 356 355 355 354 353 352 351 348 346 347 347 347 347 346 345 345 346
346 353 358 361 363 364 363 361 360 358 357 357 356 355 355 355 355 355 355 354 355 358 359 359 361 363 363 364 365 365 365 365 364 363 364 363 362 362 362 362 362 362 362 362 361 361 361 363 364 364 364 364 364 364 363 361 361 361 361 361 361 360 359 359 359 358 357 357 356 355 354 353 352 351 350 348 346 345 345 345 346 347 346 345 346
341 347 352 357 360 363 364 362 360 359 359 358 357 357 355 354 354 355 354 354 355 358 360 360 362 363 363 365 366 365 365 366 364 364 365 364 363 363 363 363 363 363 363 363 362 362 361 362 364 364 364 364 364 362 360 359 359 358 359 361 361 360 360 359 359 359 358 357 356 355 355 353 352 350 350 348 346 344 342 340 341 344 345 345 345
345 348 351 354 357 361 363 362 359 359 360 358 358 358 356 354 354 354 354 354 354 358 361 361 363 364 365 366 366 366 366 366 365 365 364 365 364 364 363 364 364 364 364 363 363 363 362 361 362 364 364 364 364 362 359 358 358 356 356 359 361 361 360 359 359 358 358 357 357 356 356 355 353 351 349 348 346 344 342 340 338 340 342 343 343
350 355 355 353 352 354 358 359 358 357 357 358 357 358 356 355 354 354 354 353 354 357 361 364 363 364 365 365 366 367 366 366 366 365 364 365 365 364 364 364 364 364 364 364 363 363 363 362 362 363 364 364 364 362 360 358 357 356 354 356 359 360 360 359 358 358 358 358 357 357 356 356 354 351 349 348 347 345 343 341 338 338 340 341 340
351 356 355 354 355 354 354 356 357 355 354 355 356 356 356 355 353 353 354 354 354 357 361 364 364 364 365 366 366 367 366 366 366 365 365 366 365 365 365 363 364 364 364 365 364 364 364 364 363 363 364 364 364 363 361 359 357 356 355 354 356 359 359 359 359 358 358 358 358 357 357 356 355 352 350 349 349 347 344 342 339 338 339 340 339
355 360 362 364 364 361 356 355 354 353 352 352 354 354 355 355 354 353 354 355 355 357 361 364 364 364 365 366 366 366 365 365 366 365 365 365 365 365 365 363 363 364 365 365 365 364 364 364 364 364 363 364 364 363 362 360 358 356 355 354 354 357 358 359 359 359 358 358 358 358 358 357 356 354 350 349 350 349 347 344 341 340 340 341 341
360 365 367 369 368 366 363 359 355 353 351 351 352 353 352 354 354 353 355 356 356 358 360 364 365 364 364 365 365 364 364 365 365 365 365 365 365 365 365 364 363 363 364 365 365 365 365 364 365 364 364 364 364 362 361 360 358 357 356 354 354 356 357 358 359 359 357 357 357 358 358 357 356 354 351 349 349 350 350 348 345 343 343 342 342
361 362 365 366 366 367 367 363 357 353 351 350 351 352 352 354 354 354 355 356 358 360 361 363 365 364 363 363 363 364 364 364 365 365 365 365 365 365 365 365 364 363 364 365 365 365 365 364 365 365 364 365 364 363 361 360 358 357 356 355 354 355 357 358 358 358 356 356 356 357 358 358 357 355 352 349 348 349 350 350 348 346 345 344 343
359 360 362 364 365 366 366 364 359 353 351 350 350 352 353 354 354 354 356 356 357 360 362 363 364 363 361 363 363 364 365 365 364 365 365 365 365 365 365 365 364 364 363 363 364 365 365 365 365 364 365 365 364 363 361 359 358 357 356 355 354 355 356 357 358 357 355 355 355 355 357 357 357 355 352 350 348 347 349 350 349 347 347 345 344
359 359 360 363 365 364 362 360 357 354 352 351 350 351 352 354 354 354 354 356 357 359 362 363 362 361 361 363 363 364 365 365 365 365 364 364 365 364 365 365 364 364 363 363 363 364 365 365 364 364 364 363 363 363 361 360 359 357 357 356 354 355 356 357 357 356 355 355 355 355 355 356 356 355 352 350 348 347 348 349 348 347 347 346 344
359 359 360 362 364 364 361 358 358 358 355 351 352 352 352 354 355 354 354 356 358 359 362 362 362 361 362 362 363 364 365 364 365 365 365 364 365 364 364 364 364 364 363 363 363 363 365 365 365 364 363 362 361 362 361 360 359 357 357 356 355 356 356 356 357 355 355 354 354 355 355 354 354 353 352 350 349 347 347 348 348 348 347 346 344
358 359 359 360 361 363 363 362 363 362 358 354 353 353 354 356 357 356 355 357 359 361 363 363 362 361 361 362 363 364 365 364 364 365 365 364 364 364 364 364 364 364 364 364 364 363 363 365 364 364 363 362 361 361 361 360 359 358 358 356 355 356 356 356 356 355 355 355 354 355 355 354 353 352 350 350 349 347 346 346 347 347 346 345 344
356 356 357 359 361 361 361 361 361 360 358 357 356 355 356 358 359 358 357 358 361 363 364 364 363 361 361 363 364 364 365 364 363 364 365 365 365 365 364 365 365 365 365 365 365 364 363 364 364 363 362 361 361 361 360 360 359 358 358 356 355 356 356 356 356 356 355 354 354 355 355 353 352 350 349 349 349 347 345 344 345 346 345 344 343
357 355 356 358 360 360 360 360 361 362 360 358 359 360 361 363 365 364 362 361 363 363 362 362 362 362 361 362 363 363 364 363 362 363 364 366 366 365 365 365 366 366 365 364 364 364 364 363 363 362 361 361 361 361 361 360 359 358 358 357 356 356 355 356 357 357 356 355 355 355 354 352 351 349 347 348 348 346 344 343 343 344 343 343 342
357 356 356 357 358 358 358 358 360 364 363 362 364 366 367 367 367 366 364 362 361 362 362 362 361 361 361 361 361 362 362 362 362 363 364 366 366 366 366 366 366 365 365 364 363 363 363 363 362 361 361 361 361 361 362 361 360 358 358 357 356 355 355 355 356 358 358 357 356 355 352 351 350 347 346 346 346 345 344 342 342 343 343 342 341
356 356 357 357 357 357 357 356 358 360 362 364 364 364 365 364 364 364 364 363 361 361 361 361 361 362 362 361 361 361 363 363 363 364 365 366 367 366 366 365 365 364 364 363 363 363 363 363 362 362 362 361 361 361 363 362 361 359 358 357 356 356 355 354 356 357 358 357 356 354 351 350 349 347 346 345 344 344 343 341 340 342 343 342 341
355 356 357 356 357 356 357 357 356 356 357 359 359 360 361 362 362 363 364 365 364 362 361 361 361 362 362 362 362 362 363 364 364 365 365 365 365 365 364 364 363 363 363 363 363 362 362 362 363 363 363 362 362 362 363 364 362 360 358 356 355 356 356 355 354 355 356 356 355 353 351 349 347 346 345 344 343 342 342 340 340 341 342 341 340
354 354 355 356 356 356 356 356 355 355 355 355 355 357 358 359 360 363 364 366 367 366 365 364 363 362 362 361 361 361 362 363 363 364 364 363 363 364 364 364 364 363 364 364 363 363 363 362 362 363 362 363 363 363 364 366 363 359 357 356 355 354 355 354 353 353 354 355 354 352 350 348 347 346 344 342 342 341 340 340 339 340 340 339 339
353 353 354 354 355 355 354 354 353 353 352 352 353 353 354 356 358 360 362 365 366 366 366 366 366 365 364 363 363 361 361 362 362 362 362 361 361 361 362 362 363 363 364 364 364 364 363 363 363 363 362 363 364 363 364 365 362 358 356 353 352 352 353 352 351 351 353 354 353 351 349 347 345 342 339 338 338 339 338 338 338 338 339 339 339
351 352 352 352 352 353 352 351 351 350 350 350 350 350 351 353 354 355 357 360 360 361 362 363 362 363 362 363 363 362 361 363 363 362 363 363 363 362 363 363 363 363 364 363 362 363 363 364 363 363 363 364 363 364 364 364 363 361 358 354 353 353 353 353 353 352 350 350 349 346 344 341 338 336 335 335 335 336 336 336 336 338 339 339 338
350 350 350 350 350 350 350 350 349 349 348 348 348 348 349 350 351 352 353 354 355 356 356 355 355 355 356 357 358 358 358 360 360 359 360 358 355 353 354 356 357 357 357 357 357 356 356 355 354 356 361 362 361 361 362 362 361 361 360 357 356 356 355 354 353 350 347 345 343 341 338 336 335 335 335 335 335 335 336 336 336 337 338 338 338
349 349 349 349 349 349 349 348 348 348 348 347 347 347 348 348 349 350 350 351 352 353 352 351 350 350 350 352 352 352 353 353 352 352 352 351 348 343 340 339 339 339 339 341 342 341 341 340 339 342 346 349 350 353 355 356 356 356 357 358 357 355 355 353 350 347 344 341 340 338 336 335 336 336 336 335 335 335 336 336 336 336 337 337 337
Wind_Speed
18 23 26 26 26 25 24 24 25 26 26 26 27 28 28 28 27 27 26 25 25 25 25 25 24 23 23 22 21 20 19 18 16 15 14 14 13 12 12 12 12 12 12 11 11 11 10 9 8 8 8 7 6 5 4 3 3 2 2 3 3 2 2 1 1 1 2 2 3 3 2 2 1 1 1 2 4 3 3 3 4 5 5 6 6
17 21 24 26 26 26 25 23 25 27 27 28 28 29 29 29 28 27 27 27 27 27 26 26 25 23 22 21 20 19 18 18 16 16 15 14 13 13 13 12 12 12 12 12 12 12 11 10 9 9 8 7 7 6 5 4 3 3 2 3 3 2 2 1 2 3 3 3 3 2 2 2 1 1 2 3 3 3 4 4 5 5 5 6 6
17 19 22 26 27 27 26 24 25 27 28 28 29 29 29 29 28 27 27 27 27 27 26 25 24 22 20 19 18 17 16 17 15 14 15 14 14 14 14 13 13 13 13 13 13 12 11 10 10 9 9 8 7 6 5 4 4 3 3 3 2 3 3 2 3 4 3 3 2 1 2 2 2 1 2 3 3 3 4 5 5 5 5 5 5
18 20 21 24 26 27 26 25 25 26 27 28 29 30 30 30 29 28 28 27 27 27 27 24 22 21 19 17 17 15 14 15 14 13 14 14 14 14 15 15 14 13 13 13 13 12 12 11 10 9 9 9 7 6 6 5 4 4 3 3 3 3 3 3 4 4 2 2 2 1 1 1 2 3 4 3 2 3 4 5 5 5 5 4 5
19 20 20 21 24 27 27 26 26 27 27 28 29 30 29 30 30 29 28 27 27 27 27 24 22 22 21 18 17 15 14 14 15 15 15 15 15 15 15 15 15 14 14 14 13 13 12 12 11 10 9 9 8 7 6 5 5 5 4 4 5 3 2 3 5 4 4 3 3 1 1 1 2 3 4 3 2 3 4 4 4 4 5 4 4
19 20 20 21 23 26 28 27 27 27 27 27 28 29 29 28 30 30 28 27 27 27 27 26 24 24 23 21 19 18 16 16 17 18 17 17 17 16 15 15 16 16 15 14 14 13 13 12 12 11 10 9 9 8 7 6 5 5 5 5 5 4 2 3 5 5 5 5 5 3 2 1 2 1 1 2 2 3 3 3 4 4 5 5 5
18 19 20 21 23 25 27 28 28 27 27 27 27 28 29 28 29 29 27 27 27 27 29 27 24 25 25 22 21 20 19 19 19 18 17 17 17 17 16 15 16 16 16 15 15 14 14 13 13 12 11 10 9 9 8 7 6 6 6 6 5 5 4 4 6 6 5 5 6 6 4 2 2 2 1 1 2 3 3 3 4 4 4 5 5
18 19 21 21 23 25 28 30 30 28 27 27 27 28 29 28 27 28 27 27 26 27 30 28 25 26 25 22 21 21 20 18 17 17 16 16 16 16 16 16 16 17 17 16 16 15 15 14 13 13 12 11 10 10 9 8 7 7 7 7 6 6 5 6 6 6 6 6 6 6 5 4 4 4 4 3 2 2 3 4 4 4 4 5 5
19 19 21 22 24 28 30 30 30 29 28 28 28 27 28 27 27 28 28 26 25 28 30 28 27 26 24 23 22 21 20 17 16 16 16 16 16 16 16 15 15 16 17 17 16 16 16 15 14 14 13 12 11 10 9 9 8 8 9 9 8 7 6 7 7 6 6 5 5 6 5 5 5 6 5 5 4 3 3 4 5 5 4 4 5
18 19 20 22 25 29 30 29 30 30 29 28 27 26 27 27 27 29 29 27 27 28 28 28 28 25 24 24 23 21 20 18 16 16 17 16 16 16 16 15 15 16 17 18 17 17 17 16 15 15 14 13 12 11 10 10 10 10 10 10 10 8 7 7 8 7 6 4 5 5 5 5 5 6 6 7 6 5 4 4 6 6 6 6 6
17 18 19 21 26 28 28 29 30 29 28 28 28 27 27 28 28 29 29 28 27 27 28 29 29 26 24 25 24 23 21 19 18 17 18 18 17 17 17 16 16 16 16 17 18 18 18 17 16 15 14 13 13 12 12 11 10 11 11 11 11 10 9 8 9 8 7 6 6 6 6 5 5 5 6 7 6 5 5 5 5 5 4 5 6
17 17 18 19 22 24 26 27 29 29 29 29 29 29 28 28 29 29 30 29 27 27 28 29 28 26 25 25 25 25 23 21 21 20 19 19 19 18 17 16 17 17 17 17 18 19 19 18 17 15 14 14 14 14 13 12 11 10 11 12 11 11 10 9 10 10 9 8 8 8 7 6 5 5 4 5 6 6 5 5 4 2 2 3 5
17 17 17 18 19 20 23 26 28 29 30 30 30 29 29 28 29 30 30 29 27 27 28 28 28 27 26 26 25 25 24 23 22 21 20 20 19 19 18 17 17 17 18 18 19 19 19 19 18 17 15 14 14 14 14 13 12 11 12 12 12 12 11 11 11 11 11 10 9 8 8 7 6 6 5 4 6 6 6 6 6 3 3 4 4
17 17 17 18 18 19 22 27 28 29 31 31 31 30 29 29 30 30 30 30 28 28 28 28 28 28 27 27 25 25 25 24 23 22 22 21 20 20 20 20 19 19 20 20 19 19 19 19 19 18 17 15 14 14 15 14 14 13 12 13 12 12 12 12 12 12 11 11 10 9 9 8 7 7 6 6 6 6 7 7 6 4 5 5 4
16 17 18 19 20 21 24 27 29 29 32 32 32 31 30 30 31 32 31 31 30 29 28 29 29 28 27 27 26 26 25 24 24 23 22 22 22 22 22 22 21 20 20 20 20 20 19 18 19 19 18 18 16 15 15 15 15 15 13 13 13 12 13 13 12 12 12 12 12 10 9 9 9 8 8 7 7 7 7 7 6 4 5 5 5
16 17 19 20 20 21 24 27 29 30 31 32 32 32 32 31 31 32 32 32 32 31 30 29 29 28 28 28 27 26 25 24 24 23 23 23 23 22 23 23 22 21 20 20 20 21 20 19 19 19 19 19 18 17 16 16 16 16 15 14 14 13 13 14 13 13 14 14 13 12 11 10 10 10 9 8 7 7 7 6 7 6 5 4 4
17 17 18 20 20 21 25 28 29 30 32 33 34 34 34 32 31 33 32 32 32 33 32 30 29 28 29 29 28 27 26 26 25 25 24 24 23 23 23 23 23 22 20 19 20 21 22 21 20 19 20 19 19 19 17 17 18 18 16 16 15 14 14 15 14 13 14 14 14 14 13 11 11 11 10 9 8 8 8 7 8 8 7 5 3
18 19 18 19 19 21 24 28 30 31 33 35 36 35 34 33 33 34 34 34 34 33 32 31 30 29 28 29 29 29 28 27 26 25 24 23 23 23 23 23 23 23 21 20 20 21 23 23 21 20 20 20 20 19 18 18 19 18 16 16 16 15 15 15 15 14 14 15 15 15 14 13 12 12 12 11 10 9 9 9 9 9 8 7 5
17 18 17 17 19 21 25 29 31 33 34 35 36 34 33 33 33 34 36 36 35 33 32 31 31 29 28 29 31 30 29 28 26 25 24 24 25 24 24 24 24 23 23 22 21 21 22 23 23 22 20 20 20 20 18 19 20 18 17 17 16 16 16 16 15 15 15 15 16 16 15 14 13 13 13 13 12 11 11 11 11 10 10 9 8
15 16 17 18 20 22 27 31 32 33 33 33 34 34 35 34 33 34 34 34 34 33 33 33 32 31 29 29 30 30 30 28 27 26 25 26 26 26 25 25 25 24 23 23 23 23 22 22 23 22 22 21 21 20 20 20 21 19 17 17 17 17 18 17 16 16 15 16 17 17 16 15 14 14 14 14 13 13 13 12 12 12 11 11 10
16 16 17 19 20 22 27 30 30 30 30 31 32 33 34 34 33 34 34 33 34 34 34 34 33 32 31 30 30 31 30 29 28 27 27 27 26 26 26 25 24 24 24 24 24 24 24 23 22 22 22 22 21 21 21 21 21 20 19 18 18 18 19 18 17 17 17 16 17 18 17 16 16 15 15 14 14 15 15 14 13 13 12 12 12
16 17 17 18 19 20 23 26 27 28 29 30 31 32 33 33 34 34 34 34 35 35 34 34 33 32 33 32 31 31 30 30 29 28 28 27 26 27 27 25 24 25 25 25 25 25 25 24 23 22 22 22 22 22 21 21 21 21 20 19 19 20 20 20 19 19 18 17 17 18 18 17 17 17 16 16 15 15 16 15 14 14 13 13 13
13 14 14 14 15 16 18 22 25 27 29 30 30 31 32 34 34 34 34 35 35 35 35 34 33 33 34 33 32 31 30 30 30 29 29 29 28 27 27 27 26 25 25 25 25 24 24 25 24 23 22 22 22 22 22 22 22 22 22 21 20 21 22 21 22 21 20 19 18 19 19 19 18 18 18 17 16 16 16 15 15 15 14 13 13
9 10 10 11 12 13 15 17 20 24 27 29 30 31 31 33 33 33 35 36 36 35 34 34 34 34 34 33 32 32 31 31 31 30 30 30 29 28 27 28 28 26 24 25 25 25 24 24 25 24 23 23 23 23 22 22 22 23 24 23 22 22 23 23 23 22 21 20 20 20 20 20 19 19 19 18 17 17 16 16 16 16 15 14 13
8 9 10 11 12 13 14 14 16 21 26 28 29 31 31 32 33 33 34 36 36 35 34 34 34 34 33 33 33 33 32 33 33 31 31 31 30 28 27 28 28 27 25 24 25 25 25 24 25 25 24 24 24 24 23 23 23 23 24 24 23 23 24 24 24 23 22 22 22 21 21 21 21 20 20 19 19 18 18 17 17 17 16 15 14
9 10 11 12 12 12 13 13 15 21 25 26 28 30 31 32 34 34 33 34 35 34 34 34 34 34 34 34 34 34 34 34 34 33 32 32 31 30 28 27 28 28 27 26 25 25 26 26 26 25 25 25 25 25 25 24 24 23 24 24 24 24 24 24 24 24 23 23 23 22 22 22 22 22 21 20 20 20 20 19 19 18 17 16 16
7 8 10 11 11 12 14 14 16 21 25 25 27 29 29 30 33 33 32 32 33 34 34 33 33 33 34 35 35 35 35 35 35 34 32 32 31 31 30 29 28 28 28 28 27 26 26 26 27 27 26 26 25 25 25 25 25 24 24 24 24 24 24 24 24 24 24 23 23 23 23 23 24 24 23 21 21 21 21 20 20 19 18 17 16
6 7 8 10 10 11 13 14 16 20 24 25 26 28 28 29 31 32 32 31 32 32 33 33 32 32 33 34 35 35 36 35 34 33 33 32 31 31 31 30 28 28 29 29 29 28 26 26 27 28 28 27 26 26 26 26 26 24 24 24 25 24 23 23 24 24 24 24 23 24 24 24 25 25 24 23 22 22 21 21 20 19 18 18 17
7 7 8 10 11 11 13 14 16 19 23 25 26 27 28 28 29 30 31 32 31 32 33 33 32 32 33 33 33 33 33 33 32 31 32 32 31 31 31 30 29 28 28 29 29 29 27 26 28 28 29 28 27 27 28 28 28 26 25 24 25 26 25 24 23 24 24 24 24 24 24 25 26 26 26 25 24 24 22 20 20 20 19 18 18
6 8 8 10 10 11 12 14 15 17 21 24 25 27 29 29 28 29 31 31 31 32 33 33 32 32 32 31 32 31 30 31 32 31 31 32 31 30 30 30 30 29 28 28 28 29 28 27 28 28 28 28 28 29 31 33 32 30 26 24 25 25 26 25 24 24 24 24 24 25 25 26 27 29 29 29 28 27 26 23 20 20 20 19 18
4 6 7 8 9 9 11 14 15 17 21 23 24 26 28 29 28 29 30 31 30 30 32 33 32 31 30 31 31 30 30 30 32 32 31 31 31 30 30 30 30 29 29 28 28 29 29 28 27 28 29 29 29 31 34 36 36 35 30 26 24 25 25 26 26 25 25 24 24 25 25 25 27 30 31 31 31 30 30 28 24 23 23 22 20
3 5 5 7 8 9 11 14 15 18 21 24 24 24 26 28 29 29 30 30 30 29 30 31 30 29 30 31 30 29 30 30 31 32 31 30 31 30 29 29 29 29 29 29 29 29 30 30 28 28 29 29 30 33 36 37 38 39 36 29 24 23 25 26 26 26 26 25 24 24 24 23 25 28 29 30 32 33 31 30 29 27 27 26 24
4 5 6 7 7 7 10 12 13 17 22 24 24 24 26 28 28 26 26 28 30 29 28 27 28 28 29 30 29 29 30 30 31 32 30 30 30 30 30 30 29 29 29 30 30 30 30 30 30 29 29 29 29 32 37 39 39 40 40 36 28 24 25 26 27 27 27 26 25 24 23 22 23 26 28 27 29 33 33 31 30 30 30 30 29
5 3 4 5 5 5 7 9 12 17 20 22 25 26 26 26 27 25 25 28 29 28 25 25 27 28 28 28 29 30 30 30 30 30 29 30 30 30 30 30 29 29 29 29 30 30 30 30 31 30 29 29 29 31 35 39 40 40 41 40 34 27 26 27 27 28 28 27 26 25 24 23 22 25 28 27 25 28 31 32 33 32 32 32 32
6 4 4 3 4 5 6 8 10 14 17 20 23 25 24 24 27 28 28 28 28 27 25 24 26 28 28 28 29 30 29 28 28 28 29 30 30 30 30 30 29 28 29 29 29 30 30 30 30 30 29 29 30 31 34 36 39 39 40 41 38 32 28 28 27 28 28 27 27 27 26 25 23 24 28 29 26 25 27 30 33 33 31 29 30
4 3 3 3 5 6 7 7 8 11 15 17 19 22 22 23 26 28 28 28 27 26 25 24 26 28 29 29 30 29 28 27 27 28 29 30 30 30 30 29 29 28 28 28 28 30 30 30 30 30 31 31 30 32 35 36 37 38 38 40 41 35 31 29 28 28 28 26 27 28 27 26 25 24 27 31 29 26 24 25 27 28 27 26 26
3 3 4 5 7 8 8 8 8 10 13 15 17 20 22 22 24 26 26 26 26 25 25 26 27 29 30 29 28 27 27 27 26 27 29 30 30 30 29 28 29 28 28 28 28 28 29 29 30 30 31 31 29 30 35 36 37 37 38 41 42 36 32 31 29 29 28 27 29 31 29 27 26 25 27 30 31 28 24 24 25 24 24 25 24
3 4 5 6 8 9 9 9 9 10 12 13 15 19 21 21 23 24 24 25 26 26 27 27 26 27 26 25 25 25 25 26 27 28 29 29 29 28 27 27 28 28 29 28 27 26 26 28 29 30 30 29 28 29 33 36 38 39 39 41 41 35 33 33 30 29 29 28 30 32 32 30 27 27 29 29 30 30 27 25 26 24 23 23 22
2 4 5 6 7 8 8 8 9 10 11 13 15 17 20 20 21 22 22 23 25 25 25 24 22 22 23 23 24 25 25 25 27 28 27 26 25 25 24 25 26 26 27 27 25 25 25 26 27 28 29 29 28 30 33 36 39 41 41 41 38 34 35 34 30 29 31 31 30 31 34 34 29 27 31 31 29 31 30 26 26 25 23 22 22
2 3 3 4 4 4 3 5 6 6 9 12 15 16 17 18 18 20 20 21 21 20 20 20 21 22 23 23 23 24 25 25 25 25 24 23 23 23 24 24 25 25 25 25 25 25 25 24 25 27 29 29 31 34 36 37 40 42 43 43 38 34 35 34 31 31 31 31 31 30 33 37 34 31 33 32 30 32 32 27 26 26 25 22 21
1 2 2 2 1 1 1 2 2 2 5 9 13 14 14 15 15 17 17 16 16 16 16 18 20 21 21 21 21 23 24 25 24 23 23 23 23 23 23 24 23 23 23 23 24 24 25 25 25 26 28 29 31 35 38 39 41 43 45 45 42 37 35 34 32 33 32 31 31 31 32 36 37 36 37 35 32 33 34 30 27 27 25 22 21
1 0 1 1 2 3 3 4 3 3 4 7 10 11 12 12 12 13 13 13 12 13 15 16 18 19 20 20 20 21 21 22 23 22 21 21 21 22 22 22 22 22 22 23 24 24 26 25 25 26 29 30 31 36 40 41 42 45 47 49 48 44 40 36 34 34 35 34 34 35 35 36 37 38 40 38 33 32 35 33 29 26 24 22 22
3 3 2 2 3 5 6 6 6 5 5 7 9 10 11 10 9 8 8 9 9 11 12 14 15 17 18 18 18 18 18 19 20 21 20 20 20 21 21 21 21 20 21 23 25 25 26 26 26 28 29 30 32 36 40 43 45 46 48 52 55 52 46 41 38 37 38 38 37 39 40 38 37 38 41 41 36 33 36 35 30 26 25 24 23
4 4 4 5 5 7 8 8 8 9 9 8 9 10 10 10 9 7 6 7 8 9 11 12 12 14 16 16 16 17 18 18 19 19 20 19 19 19 19 20 21 21 22 24 25 25 25 27 28 29 30 30 33 35 38 43 48 50 50 54 56 54 49 45 40 36 34 34 35 39 40 37 37 38 40 40 37 34 36 36 32 28 26 24 25
6 5 5 7 9 10 11 11 11 12 12 12 12 12 12 10 8 6 5 6 7 8 9 10 11 13 14 15 15 16 16 16 17 18 19 19 19 19 20 20 21 22 22 24 24 24 25 26 27 28 28 28 30 32 33 39 46 50 51 53 54 55 54 52 45 38 33 31 33 36 36 34 35 36 37 38 38 35 34 35 34 30 26 25 26
7 6 6 8 11 12 13 15 14 13 14 15 14 14 13 10 7 6 5 5 6 6 7 8 9 10 11 12 13 14 14 15 15 16 16 17 18 18 20 21 21 22 22 23 23 23 24 25 25 27 28 27 28 30 31 34 40 46 49 51 53 56 57 57 54 47 38 33 33 37 38 35 34 36 39 40 39 35 32 33 34 31 27 26 27
6 6 6 7 10 11 12 14 15 15 15 15 14 14 13 11 9 8 7 7 7 8 8 8 8 8 8 10 10 10 10 11 12 13 14 15 16 17 18 19 19 20 21 22 22 22 23 24 25 26 27 27 28 31 30 29 34 42 48 51 54 56 58 59 57 51 42 37 37 40 40 37 35 37 40 40 39 36 32 31 32 30 27 26 26
6 6 6 7 8 10 11 13 14 14 14 15 14 13 12 11 10 9 9 9 9 9 9 9 8 8 7 8 8 6 6 8 10 11 11 12 13 14 15 16 18 19 18 19 20 21 23 24 25 25 27 27 29 33 33 29 32 39 45 50 54 57 59 60 57 51 43 39 39 41 40 38 39 39 38 35 34 33 32 28 26 25 24 24 24
7 7 7 8 9 11 12 13 14 15 14 14 13 12 11 11 10 10 10 11 11 10 10 10 9 9 8 7 7 6 5 5 5 5 4 4 6 8 9 10 12 13 14 14 15 17 19 22 22 23 24 24 26 31 33 31 34 42 47 50 54 58 61 62 63 56 44 36 38 42 41 40 41 39 36 34 33 32 31 26 23 23 23 22 23
9 9 10 10 11 12 14 14 15 15 15 14 13 12 11 11 10 10 11 12 12 12 11 10 10 10 9 8 7 6 5 4 3 3 2 1 3 6 7 8 9 12 14 16 18 21 24 25 27 29 31 31 32 36 36 32 32 41 50 53 56 59 62 63 63 56 42 34 36 41 40 42 43 40 35 34 34 35 35 32 29 30 27 24 24
11 12 13 13 14 15 16 16 16 16 17 16 15 14 13 13 12 11 12 12 11 11 11 12 12 12 11 10 10 9 8 7 6 5 4 3 3 1 1 2 4 6 8 12 15 18 20 20 22 27 34 38 40 45 48 46 42 42 47 54 58 60 62 61 59 52 42 37 38 38 37 40 42 40 36 36 36 36 36 35 33 33 30 27 26
Wind_Direction
180 182 185 185 187 189 190 192 192 194 195 194 194 193 193 191 191 192 192 192 191 191 193 195 196 197 200 202 204 205 207 209 212 213 212 210 208 205 207 209 211 213 214 215 217 223 226 228 231 231 233 236 241 244 247 251 247 226 184 169 183 220 264 261 191 180 188 195 209 219 227 257 266 253 238 192 173 156 135 134 136 129 125 124 121
178 181 184 185 186 186 188 190 191 192 193 194 195 194 193 193 193 192 190 191 193 193 194 196 197 197 198 200 202 202 204 207 209 211 211 209 206 207 209 209 213 214 214 214 217 222 225 226 228 228 229 231 238 242 243 244 237 221 191 179 203 236 263 250 144 169 190 187 185 194 202 202 224 249 202 171 160 142 135 139 134 123 118 114 113
180 181 183 185 185 185 186 189 191 191 192 194 195 195 194 195 195 193 191 192 194 194 194 196 197 197 196 197 198 199 201 204 207 209 210 209 207 209 212 213 214 214 214 215 218 221 224 225 225 225 225 225 232 236 237 239 231 220 208 203 226 233 230 195 184 212 199 141 149 197 189 160 153 188 171 160 157 145 141 139 127 113 107 109 110
183 182 183 184 185 185 185 187 189 190 191 192 194 195 195 196 196 194 193 193 194 195 195 195 195 194 196 195 196 199 201 202 206 208 207 209 209 210 212 213 214 214 213 214 217 220 223 224 224 222 222 222 227 232 233 232 222 214 212 218 231 233 214 174 177 222 226 155 175 168 134 151 154 156 160 167 172 158 147 136 129 116 106 109 108
184 184 184 184 185 186 186 186 188 189 191 192 193 194 196 197 196 194 195 194 194 194 193 193 193 193 195 195 197 200 203 202 204 207 206 209 212 213 212 212 213 213 212 213 215 218 221 222 223 221 221 221 223 228 230 227 219 214 215 219 225 239 239 174 164 197 225 229 239 195 126 150 110 127 153 173 192 170 148 135 135 129 119 117 111
186 187 185 185 185 186 186 187 188 189 190 191 192 193 195 196 195 195 194 195 196 193 191 191 192 194 193 193 195 197 201 203 204 205 206 209 213 214 213 210 211 211 212 213 213 216 220 220 222 222 222 222 224 227 224 221 216 211 214 216 217 229 239 202 177 186 212 234 244 252 271 352 42 65 160 167 185 188 172 162 162 152 135 133 129
189 190 188 186 185 185 187 188 189 190 189 190 191 192 194 194 194 194 194 197 197 194 192 190 192 195 192 191 194 195 199 203 204 205 206 208 211 212 211 208 208 210 211 213 213 215 218 220 223 224 224 224 226 227 223 219 214 205 210 213 210 212 211 211 196 182 195 224 232 241 257 288 332 306 251 177 180 198 209 204 186 166 150 148 152
190 191 191 189 187 187 188 189 190 190 188 188 190 191 192 192 192 193 195 197 197 196 195 192 193 196 192 192 197 199 202 204 203 204 206 207 208 208 207 206 206 208 210 213 214 214 217 221 224 225 225 225 225 226 224 219 212 204 208 209 205 205 202 208 206 187 188 201 210 227 240 252 270 269 269 271 246 216 209 214 209 188 178 179 176
192 192 192 192 190 190 190 189 189 189 189 189 189 190 191 191 191 192 195 197 198 198 195 194 198 197 192 194 199 202 205 206 202 201 201 202 203 203 204 206 207 208 210 213 214 215 217 221 224 226 227 225 225 226 225 218 210 204 206 206 201 202 203 204 205 201 202 191 183 207 225 229 239 247 253 253 255 255 216 197 198 197 204 203 195
197 195 194 194 193 192 190 188 188 189 190 189 187 188 189 190 191 193 194 197 200 197 193 196 201 198 195 197 200 202 203 204 202 199 198 198 200 201 202 206 209 210 211 213 216 216 218 221 223 227 228 226 225 226 224 217 210 205 207 208 202 200 201 201 201 203 211 202 181 192 207 208 214 225 232 234 237 246 245 220 195 192 206 201 200
199 197 195 195 195 194 190 188 189 190 188 187 187 188 189 190 191 192 194 196 198 196 193 198 201 199 198 199 201 202 201 200 200 198 197 198 201 203 205 208 211 214 214 214 217 217 218 221 223 226 227 225 224 225 223 218 213 207 206 209 206 201 199 199 201 203 206 208 199 198 206 208 208 215 224 226 230 232 234 241 215 195 211 197 191
198 197 195 193 193 193 192 190 189 188 188 188 188 188 189 190 191 192 194 195 196 195 196 199 201 200 201 203 204 204 202 201 201 200 198 199 203 205 206 209 212 214 214 215 217 216 216 219 221 222 223 223 223 223 222 219 214 207 205 208 207 205 202 198 200 203 203 205 205 206 211 216 218 225 230 222 228 236 235 248 248 214 245 223 195
198 197 194 191 191 191 191 191 188 188 190 190 190 189 188 190 191 192 194 194 195 196 197 199 201 202 203 205 206 206 205 205 204 204 203 203 205 205 205 208 210 212 213 214 215 214 213 214 216 216 217 219 221 223 222 220 215 208 207 210 209 207 204 199 201 203 203 204 206 209 212 216 216 217 228 225 220 229 234 247 254 232 237 238 203
198 197 195 192 190 189 190 189 188 189 189 189 190 189 189 189 190 192 194 194 194 196 198 200 202 204 204 205 206 206 206 206 207 208 207 207 207 207 207 210 212 213 214 215 215 214 213 213 212 213 215 213 215 220 223 220 214 211 210 211 212 210 205 202 203 203 203 204 207 210 211 216 217 210 212 222 220 219 224 236 245 243 247 242 209
199 197 198 195 191 188 188 188 188 189 189 189 190 189 189 189 189 191 192 193 194 196 198 201 204 205 205 205 206 207 207 207 209 210 209 209 209 208 210 212 214 216 217 216 215 213 213 212 211 212 214 212 210 215 221 220 215 214 214 214 214 212 208 205 204 204 205 204 205 209 213 214 217 214 209 213 219 219 222 230 234 237 242 236 217
199 199 200 198 193 189 188 188 188 188 188 189 190 189 189 189 188 190 191 192 194 196 198 201 204 205 205 206 207 207 206 206 208 209 209 210 210 209 211 214 216 217 217 215 213 212 212 211 211 213 213 214 212 212 217 218 215 216 216 215 214 213 210 207 204 205 206 205 206 207 212 215 213 214 214 212 216 219 218 220 221 225 234 236 224
199 200 200 197 194 191 190 189 188 187 188 189 190 190 189 188 187 189 190 192 194 197 199 201 203 204 204 205 206 207 207 207 208 209 209 209 210 211 213 215 216 217 216 214 212 213 214 213 212 213 213 214 215 214 216 218 217 218 217 214 213 213 213 209 205 207 207 206 208 206 208 214 212 210 213 212 211 214 216 212 211 217 224 234 234
200 200 199 196 194 194 193 191 190 189 189 189 188 189 189 188 187 187 189 192 194 196 197 198 200 202 202 203 205 207 208 209 210 209 209 208 210 211 213 214 215 215 215 214 211 212 215 215 213 212 212 213 215 214 214 217 217 217 216 216 214 212 214 211 205 207 209 206 208 207 207 211 211 208 210 211 208 209 212 211 210 213 217 227 240
201 201 198 196 196 196 195 194 193 191 190 189 187 187 188 190 190 189 191 192 193 193 194 196 199 201 203 204 205 207 208 209 210 209 208 209 211 211 212 213 214 214 213 212 211 210 212 213 213 213 213 212 213 212 211 212 215 215 213 215 215 212 213 213 206 207 210 208 207 207 207 209 209 208 209 209 207 207 210 210 209 209 211 217 226
202 201 200 197 198 198 198 198 196 192 190 189 188 187 189 190 190 192 193 192 191 192 193 196 199 201 203 204 205 206 208 209 209 207 208 210 212 212 212 213 212 212 212 211 212 212 211 212 214 214 214 213 212 211 209 209 212 212 209 212 215 212 213 214 211 210 210 209 208 207 208 208 207 207 208 208 205 205 208 210 210 206 207 209 212
202 202 201 199 200 201 199 200 198 194 191 190 190 189 190 190 191 193 194 191 192 193 193 196 198 200 201 203 204 206 207 209 208 207 209 211 212 212 213 213 212 211 211 211 212 213 212 213 214 214 213 213 211 209 207 206 208 209 207 209 211 211 213 216 215 213 211 210 208 208 210 209 207 207 206 207 207 205 207 209 211 207 207 208 206
201 202 202 201 201 202 200 198 197 196 194 192 192 192 191 191 193 194 193 193 194 194 194 195 196 198 201 202 203 205 206 208 208 207 209 211 211 212 213 212 212 211 210 210 211 213 213 214 214 214 213 212 210 208 207 204 206 207 205 206 207 208 213 217 218 216 212 209 208 210 211 209 208 209 208 209 208 207 208 209 210 210 211 211 208
204 205 206 204 202 201 200 197 196 197 196 193 193 193 194 194 194 194 194 195 195 195 195 195 195 198 200 201 202 203 204 206 206 207 209 211 211 211 211 211 211 212 211 211 212 212 213 213 214 214 212 212 211 210 209 206 206 207 205 205 206 206 210 215 218 218 213 209 209 210 212 210 208 209 210 211 211 210 210 211 211 212 216 215 210
202 208 208 207 203 197 199 198 195 196 196 194 194 194 195 196 195 195 196 196 195 196 195 194 195 198 199 199 200 202 203 205 207 208 209 211 212 211 211 211 212 213 211 211 213 213 212 211 212 212 212 212 211 210 210 209 208 209 207 207 206 206 208 212 215 217 214 212 210 211 213 212 210 210 209 209 211 211 210 212 213 212 216 218 214
194 201 202 204 202 196 198 198 192 193 195 195 195 195 195 195 196 197 197 196 195 195 195 195 197 199 198 198 199 201 203 205 207 209 211 212 213 212 212 211 213 214 213 211 212 212 211 210 211 212 212 212 212 211 212 211 210 210 209 209 208 208 209 211 214 217 216 214 213 213 214 212 211 211 210 208 209 210 211 212 213 212 213 216 215
203 201 199 201 203 200 196 194 192 193 195 195 195 196 195 194 195 197 197 196 195 195 194 195 197 198 198 199 200 201 203 206 208 210 211 213 213 213 213 212 213 213 213 213 212 212 211 210 212 213 213 213 213 212 212 213 212 211 210 209 209 210 212 213 215 218 218 216 215 215 215 214 213 212 211 209 207 207 210 212 213 214 213 212 214
206 199 199 201 204 203 197 193 192 194 195 195 195 197 197 196 196 197 196 195 195 195 195 196 197 197 198 199 200 201 204 207 208 209 211 212 213 213 213 213 213 214 214 214 214 213 211 211 212 214 214 215 214 213 213 214 213 212 210 209 210 211 212 214 216 219 219 218 216 217 217 216 215 214 211 209 207 206 210 213 213 213 213 212 213
196 197 203 206 208 207 201 197 196 196 197 198 198 199 199 200 198 197 195 195 194 194 195 196 197 197 197 198 199 201 203 205 206 207 208 210 212 212 212 213 213 213 214 215 215 214 212 211 212 215 216 215 215 214 213 212 214 213 210 209 210 211 212 213 216 219 220 220 219 219 220 219 217 216 212 209 207 206 208 212 213 212 213 214 214
185 196 204 211 214 208 202 201 200 201 200 200 201 200 199 201 200 197 197 196 193 192 195 196 197 197 197 196 197 200 202 203 204 204 206 208 210 210 211 212 212 213 214 215 215 214 212 210 211 214 215 215 215 214 213 212 211 211 211 211 211 211 212 213 215 218 220 221 220 221 222 222 220 218 216 213 210 208 207 209 211 210 211 213 216
193 196 203 216 221 210 200 198 198 202 202 201 201 200 199 200 200 198 198 196 193 192 193 195 197 197 194 193 195 198 199 200 201 202 204 206 208 209 210 211 211 213 214 214 214 214 213 211 210 211 212 213 214 216 218 218 214 211 209 210 211 211 212 214 215 218 220 220 221 223 225 224 223 222 221 219 217 215 215 213 210 209 209 210 214
216 208 214 224 229 217 201 197 198 200 201 201 201 200 200 200 200 199 199 196 194 193 192 195 197 194 190 190 193 196 197 198 200 201 203 205 206 208 209 209 210 211 212 213 213 214 215 214 212 211 212 213 214 219 222 221 220 216 211 208 210 211 211 214 216 217 219 221 221 223 225 224 223 222 222 223 223 222 223 224 220 214 212 211 211
210 211 232 237 237 226 209 203 202 200 201 201 200 198 199 201 200 199 198 196 195 195 194 195 194 189 188 190 193 194 195 197 199 200 202 203 205 207 208 208 209 210 211 212 213 214 215 215 214 214 214 214 217 222 224 222 222 221 216 210 211 212 212 215 217 217 219 221 220 221 223 221 220 219 218 221 225 225 227 229 228 224 220 218 216
221 200 227 240 242 235 222 215 209 206 206 203 198 197 200 201 199 198 196 196 198 198 196 193 191 188 189 192 193 194 196 198 199 199 201 202 204 206 208 208 209 210 211 213 214 215 215 215 216 216 216 217 219 223 225 224 223 223 220 216 213 215 216 217 218 218 218 218 217 218 219 217 217 217 213 212 219 224 226 228 229 228 225 225 225
275 240 242 244 244 246 239 231 222 216 213 206 201 201 201 198 196 196 196 197 199 199 197 194 192 192 193 194 194 195 198 199 199 199 200 203 205 207 208 210 211 211 212 213 215 216 216 216 217 217 218 220 220 222 225 225 224 224 223 220 217 217 220 221 220 219 217 217 216 215 216 214 211 212 210 205 207 217 222 223 225 226 225 225 228
285 271 262 251 250 253 248 241 232 222 216 210 205 203 199 195 193 194 195 197 197 198 197 195 194 195 196 196 197 198 199 199 199 199 201 205 208 209 210 211 213 213 214 215 216 217 218 218 218 218 219 222 222 222 224 226 226 224 223 222 220 219 222 224 223 220 218 217 217 215 216 214 207 204 209 207 202 205 212 215 218 221 221 221 225
281 276 270 270 270 268 260 252 241 225 216 213 207 200 196 194 192 193 194 194 194 195 196 195 195 197 199 199 200 200 200 200 199 200 203 207 209 210 210 210 213 215 216 217 217 218 219 219 219 219 221 223 224 223 224 225 225 224 222 222 220 219 221 224 224 223 220 219 221 219 216 212 207 205 212 213 208 202 204 208 211 213 214 216 220
285 291 285 281 277 272 266 256 242 229 219 213 204 198 195 193 192 192 193 192 192 194 196 196 197 199 200 201 201 201 200 200 200 201 205 208 209 210 209 209 211 214 216 217 218 220 220 220 220 220 222 224 225 225 224 225 225 223 221 220 218 217 220 223 224 225 223 222 223 222 218 213 209 209 213 215 212 206 203 208 210 207 208 213 216
286 291 286 284 279 270 263 251 237 228 217 208 201 196 194 194 193 194 194 193 196 198 198 199 199 200 200 199 199 200 199 200 201 204 207 209 210 211 209 209 211 214 218 220 220 221 221 221 222 222 223 225 228 229 227 225 225 224 220 217 215 215 219 221 222 224 225 224 224 224 222 217 212 211 212 213 213 209 205 209 212 207 206 210 211
285 290 290 294 292 279 260 238 224 219 211 204 199 194 193 194 193 194 195 197 200 201 200 200 199 197 197 198 198 200 200 201 204 208 211 213 213 213 212 212 214 217 221 222 222 224 224 223 224 225 225 227 231 233 230 225 223 221 219 216 214 216 221 222 220 222 225 226 225 224 223 221 217 214 213 212 212 209 204 205 209 209 209 209 209
262 281 291 296 304 295 251 212 202 203 199 197 194 191 193 193 191 195 199 201 203 201 197 197 195 194 196 198 199 200 202 205 208 210 213 214 213 214 215 215 217 220 223 224 224 225 227 226 226 227 225 226 231 234 233 228 223 221 219 215 212 217 223 223 221 222 225 226 224 223 224 224 219 214 212 211 211 209 204 202 206 211 212 210 210
312 310 293 282 348 46 82 103 121 160 181 190 189 188 192 191 189 194 200 200 199 195 190 190 191 193 196 198 199 202 203 206 208 209 211 214 214 216 216 216 219 221 222 223 223 224 227 227 226 227 227 227 230 234 234 232 226 222 219 214 211 215 221 221 220 221 222 224 223 220 222 222 219 215 212 210 210 210 206 202 204 209 210 208 210
112 302 255 201 89 82 78 68 73 119 160 178 180 180 185 184 184 192 198 195 191 187 184 184 187 192 197 198 200 203 203 206 209 209 211 213 213 215 215 216 219 220 222 226 227 228 231 231 229 231 232 231 231 234 234 233 228 222 219 214 212 213 216 215 216 217 216 219 219 215 215 218 218 215 211 208 208 210 208 203 202 204 205 204 207
128 128 145 132 96 79 71 60 58 84 126 155 164 166 169 164 155 161 169 169 171 174 177 183 188 193 198 201 204 205 205 208 211 211 211 213 213 214 215 216 219 222 227 233 235 235 238 240 239 240 239 237 236 236 235 233 229 225 221 218 216 215 213 210 211 213 212 211 212 211 212 217 218 213 208 208 209 208 206 203 198 198 201 200 199
114 111 120 122 109 92 82 71 64 71 92 119 132 130 123 115 107 108 127 145 157 163 169 178 187 193 199 204 208 209 209 211 211 210 210 213 213 214 216 218 220 224 230 236 238 238 241 244 246 246 244 241 240 239 237 235 232 228 224 221 219 217 214 211 213 217 214 210 210 209 209 212 214 210 206 207 209 205 203 201 196 194 198 197 193
117 113 115 115 109 100 95 89 79 72 76 87 99 102 97 92 94 104 122 142 158 168 174 181 187 190 195 200 204 207 209 210 209 208 209 213 215 217 221 225 227 229 233 237 240 241 242 245 247 248 247 246 245 243 241 238 234 230 227 224 220 218 216 215 216 220 221 215 211 207 204 208 211 207 202 203 204 202 201 200 195 193 194 192 192
127 119 116 113 109 103 97 93 87 81 79 80 85 91 94 94 99 110 122 135 148 161 170 179 185 187 191 195 198 202 205 207 208 209 212 218 222 224 227 230 232 233 236 239 242 244 245 247 248 249 251 251 249 247 244 240 234 228 226 225 222 220 219 217 217 220 221 218 211 205 202 204 205 200 197 198 199 198 198 198 195 192 191 191 194
127 124 121 116 108 101 96 92 88 85 85 86 87 90 94 98 101 106 117 128 138 145 149 157 167 172 177 186 191 196 200 202 205 212 218 225 229 231 233 234 236 238 240 241 242 244 248 250 252 254 254 253 250 249 248 240 228 223 223 222 221 221 220 219 219 220 220 216 209 202 199 198 198 196 194 193 193 192 192 194 192 190 191 193 195
133 129 121 109 102 99 96 92 90 88 87 89 90 91 96 101 103 106 111 115 123 131 133 137 143 144 151 163 169 174 185 193 201 211 219 225 230 233 235 235 237 240 243 246 247 247 249 252 254 256 257 256 253 251 249 239 225 221 221 219 217 219 219 217 218 220 220 216 205 195 190 189 189 187 184 182 184 185 185 185 185 186 190 194 192
123 115 109 105 103 101 97 94 94 94 92 91 90 91 96 101 104 110 115 115 116 119 118 119 121 119 123 133 139 144 161 178 189 200 219 246 257 257 255 251 248 247 251 261 268 269 266 266 267 266 263 261 259 257 255 249 237 230 225 221 219 219 218 218 219 219 217 211 196 184 179 178 177 174 172 172 174 175 174 174 176 180 188 191 189
117 113 110 107 105 103 100 98 97 96 95 93 91 90 92 97 104 111 116 116 116 114 110 105 101 99 102 109 112 114 123 133 138 145 154 235 272 269 270 272 270 268 267 268 274 277 276 277 281 278 272 270 270 269 269 268 256 242 232 227 225 224 221 219 218 215 210 202 190 181 176 173 169 168 169 170 171 169 167 168 172 177 183 187 188
115 112 109 107 105 102 100 98 97 97 96 94 92 91 90 93 98 106 113 113 108 101 95 89 84 82 84 89 93 93 96 98 96 97 103 105 107 105 6 317 297 288 279 273 274 278 281 287 291 286 280 279 279 277 276 276 274 262 244 232 228 226 221 217 213 208 202 195 188 183 179 173 170 169 169 169 168 167 166 166 168 173 179 183 186